Location: Castle Hill Houses
(40.8186°N, 73.8497°W)
Time: 18:13:21
(UTC+00:00)

Cosmos 2058 Rocket - Pass Details

Date: 26 January 2020
Orbit: 611 x 639 km, 82.5° (Epoch: 25 February)

Event Time Altitude Azimuth Distance (km) Brightness Sun altitude
Rises 10:00:27 0° 177° (S) 2,884 6.6 -24.7°
Reaches altitude 10° 10:02:41 10° 173° (S) 1,978 5.8 -24.3°
Maximum altitude 10:06:59 59° 95° (E) 715 3.6 -23.5°
Drops below altitude 10° 10:11:18 10° 16° (NNE) 1,980 5.7 -22.7°
Sets 10:13:32 0° 12° (NNE) 2,887 6.6 -22.3°
